Location: *
(50.3440°N, 18.6237°E)
Time: 14:42:27
(UTC+00:00)

Cosmos 2056 Rocket - Pass Details

Date: 30 November 2020
Orbit: 741 x 801 km, 74.0° (Epoch: 26 January)

Event Time Altitude Azimuth Distance (km) Brightness Sun altitude
Rises 16:56:55 0° 339° (NNW) 3,243 6.9 -20.1°
Reaches altitude 10° 16:59:27 10° 347° (NNW) 2,322 6.0 -20.5°
Enters shadow 17:03:47 37° 40° (NE) 1,192 4.1 -21.2°
